Location: Belmont
(13.0833°N, 59.6000°W)
Time: 10:47:01
(UTC+00:00)

CZ-3 Stage 3 - Pass Details

Date: 17 September 2019
Orbit: 237 x 16060 km, 30.8° (Epoch: 13 October)

Event Time Altitude Azimuth Distance (km) Brightness Sun altitude
Rises 23:25:18 0° 251° (WSW) 5,280 7.4 -22.0°
Reaches altitude 10° 23:30:47 10° 260° (W) 2,737 5.8 -23.3°
Maximum altitude 23:35:23 29° 321° (NW) 857 2.7 -24.4°
Enters shadow 23:35:36 28° 330° (NNW) 832 2.5 -24.4°
